When you browse on this site, cookies collect data to enhance your experience and personalize the content and advertising you see.
Visit our Privacy Policy to learn more. By continuing to use the site, you agree to this use of cookies and data.
  • In Österreich
  • Länderverzeichnis
  • Für 7 Tage
  • Wassertemperatur
  • Satellitenkarten
  • Wetterkarte
  • News
  • Widgets
  • user-avatar
    Anmelden

    Stündliche Wetter Lisboa

    Heute, 20 Juli, Samstag

    Zeit Temperatur Niederschläge Wind Luftdruck Luftfeuchtigkeit
    00:00 +19°C° 0 mm 5 m/S 757 mmHg 89%
    01:00 +19°C° 0 mm 5 m/S 757 mmHg 89%
    02:00 +19°C° 0 mm 5 m/S 757 mmHg 88%
    03:00 +19°C° 0 mm 5 m/S 757 mmHg 89%
    04:00 +19°C° 0 mm 4 m/S 757 mmHg 89%
    05:00 +19°C° 0 mm 4 m/S 757 mmHg 89%
    06:00 +21°C° 0 mm 4 m/S 758 mmHg 80%
    07:00 +23°C° 0 mm 5 m/S 758 mmHg 71%
    08:00 +26°C° 0 mm 5 m/S 758 mmHg 62%
    09:00 +27°C° 0 mm 6 m/S 758 mmHg 57%
    10:00 +28°C° 0 mm 7 m/S 758 mmHg 53%
    11:00 +30°C° 0 mm 7 m/S 758 mmHg 48%
    12:00 +30°C° 0 mm 7 m/S 758 mmHg 48%
    13:00 +31°C° 0 mm 8 m/S 758 mmHg 49%
    14:00 +31°C° 0 mm 8 m/S 758 mmHg 49%
    15:00 +29°C° 0 mm 8 m/S 758 mmHg 51%
    16:00 +27°C° 0 mm 8 m/S 758 mmHg 53%
    17:00 +26°C° 0 mm 8 m/S 758 mmHg 55%
    18:00 +23°C° 0 mm 7 m/S 759 mmHg 61%
    19:00 +21°C° 0 mm 7 m/S 759 mmHg 67%
    20:00 +20°C° 0 mm 6 m/S 760 mmHg 73%
    21:00 +19°C° 0 mm 6 m/S 760 mmHg 75%
    22:00 +19°C° 0 mm 5 m/S 760 mmHg 76%
    23:00 +17°C° 0 mm 5 m/S 760 mmHg 77%

    Morgen, 21 Juli, Sonntag

    Zeit Temperatur Niederschläge Wind Luftdruck Luftfeuchtigkeit
    00:00 +17°C° 0 mm 5 m/S 759 mmHg 79%
    01:00 +17°C° 0 mm 5 m/S 759 mmHg 82%
    02:00 +17°C° 0 mm 5 m/S 759 mmHg 84%
    03:00 +17°C° 0 mm 5 m/S 759 mmHg 85%
    04:00 +17°C° 0 mm 5 m/S 759 mmHg 85%
    05:00 +18°C° 0 mm 4 m/S 759 mmHg 86%
    06:00 +20°C° 0 mm 5 m/S 759 mmHg 76%
    07:00 +22°C° 0 mm 5 m/S 759 mmHg 67%
    08:00 +25°C° 0 mm 5 m/S 760 mmHg 57%
    09:00 +26°C° 0 mm 5 m/S 759 mmHg 52%
    10:00 +28°C° 0 mm 5 m/S 759 mmHg 46%
    11:00 +30°C° 0 mm 5 m/S 759 mmHg 41%
    12:00 +30°C° 0 mm 6 m/S 759 mmHg 40%
    13:00 +32°C° 0 mm 6 m/S 759 mmHg 40%
    14:00 +32°C° 0 mm 7 m/S 759 mmHg 39%
    15:00 +30°C° 0 mm 7 m/S 758 mmHg 42%
    16:00 +28°C° 0 mm 7 m/S 758 mmHg 46%
    17:00 +27°C° 0 mm 7 m/S 758 mmHg 49%
    18:00 +24°C° 0 mm 6 m/S 758 mmHg 57%
    19:00 +22°C° 0 mm 6 m/S 759 mmHg 65%
    20:00 +20°C° 0 mm 5 m/S 759 mmHg 73%
    21:00 +19°C° 0 mm 5 m/S 759 mmHg 76%
    22:00 +19°C° 0 mm 4 m/S 759 mmHg 79%
    23:00 +18°C° 0 mm 4 m/S 759 mmHg 81%

    übermorgen, 22 Juli, Montag

    Zeit Temperatur Niederschläge Wind Luftdruck Luftfeuchtigkeit
    00:00 +18°C° 0 mm 3 m/S 759 mmHg 83%
    01:00 +18°C° 0 mm 2 m/S 759 mmHg 85%
    02:00 +17°C° 0 mm 2 m/S 758 mmHg 86%
    03:00 +17°C° 0 mm 2 m/S 758 mmHg 87%
    04:00 +18°C° 0 mm 1 m/S 758 mmHg 88%
    05:00 +19°C° 0 mm 1 m/S 759 mmHg 89%
    06:00 +20°C° 0 mm 2 m/S 759 mmHg 80%
    07:00 +23°C° 0 mm 2 m/S 759 mmHg 70%
    08:00 +25°C° 0 mm 2 m/S 759 mmHg 61%
    09:00 +28°C° 0 mm 2 m/S 759 mmHg 53%
    10:00 +30°C° 0 mm 3 m/S 759 mmHg 46%
    11:00 +33°C° 0 mm 3 m/S 759 mmHg 38%
    12:00 +33°C° 0 mm 4 m/S 758 mmHg 39%
    13:00 +33°C° 0 mm 5 m/S 758 mmHg 39%
    14:00 +33°C° 0 mm 6 m/S 758 mmHg 40%
    15:00 +30°C° 0 mm 5 m/S 758 mmHg 43%
    16:00 +29°C° 0 mm 5 m/S 757 mmHg 47%
    17:00 +28°C° 0 mm 5 m/S 757 mmHg 50%
    18:00 +25°C° 0 mm 5 m/S 758 mmHg 60%
    19:00 +22°C° 0 mm 5 m/S 758 mmHg 71%
    20:00 +20°C° 0 mm 5 m/S 758 mmHg 81%
    21:00 +20°C° 0 mm 4 m/S 758 mmHg 83%
    22:00 +19°C° 0 mm 3 m/S 758 mmHg 86%
    23:00 +19°C° 0 mm 2 m/S 758 mmHg 88%

    23 Juli, Dienstag

    Zeit Temperatur Niederschläge Wind Luftdruck Luftfeuchtigkeit
    00:00 +19°C° 0 mm 2 m/S 758 mmHg 88%
    01:00 +19°C° 0 mm 2 m/S 758 mmHg 88%
    02:00 +19°C° 0 mm 2 m/S 758 mmHg 89%
    03:00 +18°C° 0 mm 2 m/S 757 mmHg 89%
    04:00 +18°C° 0 mm 2 m/S 757 mmHg 89%
    05:00 +18°C° 0 mm 2 m/S 757 mmHg 90%
    06:00 +20°C° 0 mm 2 m/S 757 mmHg 81%
    07:00 +22°C° 0 mm 3 m/S 758 mmHg 73%
    08:00 +25°C° 0 mm 3 m/S 758 mmHg 65%
    09:00 +26°C° 0 mm 4 m/S 758 mmHg 58%
    10:00 +28°C° 0 mm 4 m/S 758 mmHg 52%
    11:00 +30°C° 0 mm 5 m/S 758 mmHg 45%
    12:00 +30°C° 0 mm 5 m/S 758 mmHg 43%
    13:00 +32°C° 0 mm 5 m/S 757 mmHg 40%
    14:00 +32°C° 0 mm 6 m/S 757 mmHg 38%
    15:00 +30°C° 0 mm 6 m/S 757 mmHg 40%
    16:00 +29°C° 0 mm 6 m/S 757 mmHg 42%
    17:00 +28°C° 0 mm 6 m/S 757 mmHg 44%
    18:00 +26°C° 0 mm 6 m/S 757 mmHg 51%
    19:00 +23°C° 0 mm 5 m/S 757 mmHg 58%
    20:00 +21°C° 0 mm 5 m/S 757 mmHg 66%
    21:00 +20°C° 0 mm 4 m/S 757 mmHg 70%
    22:00 +20°C° 0 mm 4 m/S 757 mmHg 74%
    23:00 +19°C° 0 mm 3 m/S 757 mmHg 78%

    24 Juli, Mittwoch

    Zeit Temperatur Niederschläge Wind Luftdruck Luftfeuchtigkeit
    00:00 +19°C° 0 mm 3 m/S 757 mmHg 80%
    01:00 +19°C° 0 mm 3 m/S 757 mmHg 82%
    02:00 +18°C° 0 mm 2 m/S 756 mmHg 85%
    03:00 +18°C° 0 mm 2 m/S 756 mmHg 84%
    04:00 +19°C° 0 mm 1 m/S 756 mmHg 84%
    05:00 +19°C° 0 mm 1 m/S 756 mmHg 83%
    06:00 +21°C° 0 mm 1 m/S 756 mmHg 72%
    07:00 +24°C° 0 mm 2 m/S 756 mmHg 61%
    08:00 +26°C° 0 mm 2 m/S 757 mmHg 50%
    09:00 +29°C° 0 mm 2 m/S 756 mmHg 43%
    10:00 +31°C° 0 mm 2 m/S 756 mmHg 35%
    11:00 +34°C° 0 mm 2 m/S 756 mmHg 28%
    12:00 +34°C° 0 mm 3 m/S 756 mmHg 30%
    13:00 +34°C° 0 mm 4 m/S 755 mmHg 32%
    14:00 +33°C° 0 mm 5 m/S 755 mmHg 34%
    15:00 +32°C° 0 mm 6 m/S 755 mmHg 40%
    16:00 +30°C° 0 mm 6 m/S 755 mmHg 47%
    17:00 +28°C° 0 mm 6 m/S 755 mmHg 53%
    18:00 +26°C° 0 mm 5 m/S 755 mmHg 63%
    19:00 +25°C° 0 mm 5 m/S 755 mmHg 73%
    20:00 +22°C° 0 mm 4 m/S 756 mmHg 83%
    21:00 +22°C° 0 mm 3 m/S 756 mmHg 86%
    22:00 +21°C° 0 mm 3 m/S 756 mmHg 88%
    23:00 +21°C° 0 mm 2 m/S 756 mmHg 91%

    25 Juli, Donnerstag

    Zeit Temperatur Niederschläge Wind Luftdruck Luftfeuchtigkeit
    00:00 +22°C° 0 mm 1 m/S 756 mmHg 91%
    01:00 +21°C° 0 mm 1 m/S 756 mmHg 92%
    02:00 +19°C° 0 mm 0 m/S 755 mmHg 93%
    03:00 +21°C° 0 mm 1 m/S 756 mmHg 93%
    04:00 +21°C° 0 mm 1 m/S 756 mmHg 93%
    05:00 +21°C° 0 mm 1 m/S 756 mmHg 94%
    06:00 +23°C° 0 mm 1 m/S 756 mmHg 86%
    07:00 +24°C° 0 mm 1 m/S 756 mmHg 78%
    08:00 +25°C° 0 mm 2 m/S 757 mmHg 70%
    09:00 +27°C° 0 mm 2 m/S 757 mmHg 61%
    10:00 +28°C° 0 mm 3 m/S 757 mmHg 52%
    11:00 +30°C° 0 mm 3 m/S 757 mmHg 42%
    12:00 +30°C° 0 mm 4 m/S 757 mmHg 45%
    13:00 +30°C° 0 mm 5 m/S 757 mmHg 47%
    14:00 +29°C° 0 mm 5 m/S 757 mmHg 49%
    15:00 +28°C° 0 mm 5 m/S 757 mmHg 56%
    16:00 +27°C° 0 mm 5 m/S 757 mmHg 63%
    17:00 +26°C° 0 mm 6 m/S 757 mmHg 69%
    18:00 +24°C° 0 mm 6 m/S 758 mmHg 72%
    19:00 +22°C° 0 mm 6 m/S 758 mmHg 75%
    20:00 +21°C° 0 mm 6 m/S 758 mmHg 78%
    21:00 +20°C° 0 mm 6 m/S 758 mmHg 78%
    22:00 +20°C° 0 mm 5 m/S 759 mmHg 77%
    23:00 +19°C° 0 mm 5 m/S 759 mmHg 76%
    Mehr zeigen